#datint,netname,site,siteID,timestamp,IntT,BattV,AirT2,AirT,AirT_Avg,AirT_Max,AirT_Min,RH_Avg,RH_Max,RH_Min,EA_Avg,Td_Avg,Td_Max,Td_Min,WindS_Smp,WindS_Avg,WindD_Avg,WindD_SD,WindS_Max,ETo,ETr,SoilT4,SoilT8,SoilVWC8,SolarW_Avg,wetstate_Avg,wetT_Avg,Precip_accum,Precip_WPG,Precip_TB
15min,AgWx,beryljct,423,15NOV2020:00:00:00,23.8,12.79,20.5,19.6,20.0,20.8,19.1,68,69,67,0.250,11.2,12.2,10.6,1.513,1.4,341,28,2.9,-0.00009,-0.00012,38.7,43.2,8,0,.,.,6.01,0.00,0.00
15min,AgWx,beryljct,423,15NOV2020:00:15:00,23.2,12.8,17.4,17.2,19.0,19.7,17.1,68,74,67,0.243,10.2,11.0,9.5,2.28,1.9,9.2,46,2.8,-0.00007,-0.00008,38.5,43.1,8,0,.,.,6.01,0.00,0.00
15min,AgWx,beryljct,423,15NOV2020:00:30:00,22.4,12.79,17.6,17.0,17.1,17.7,16.7,78,81,74,0.264,11.5,12.2,10.3,4.099,3.2,170,34,4.9,-0.00004,-0.00005,38.2,43.1,8,0,.,.,6.01,0.00,0.00
15min,AgWx,beryljct,423,15NOV2020:00:45:00,21.8,12.79,21.2,20.4,18.9,20.4,17.0,78,81,76,0.286,13.2,13.9,12.2,3.924,3.9,174,7.5,5.0,-0.00003,-0.00003,38.0,43.0,8,0,.,.,6.02,0.00,0.00
15min,AgWx,beryljct,423,15NOV2020:01:00:00,21.7,12.77,21.5,21.2,21.1,21.8,20.4,73,76,72,0.286,13.9,14.4,13.4,5.217,3.7,171,7.2,5.2,-0.00003,-0.00002,37.8,42.9,8,0,.,.,6.01,0.00,0.00
15min,AgWx,beryljct,423,15NOV2020:01:15:00,21.9,12.77,20.3,19.7,20.6,21.4,19.5,75,76,73,0.277,14.0,14.6,12.9,0,2.0,170,6.8,4.9,-0.00008,-0.00009,37.6,42.9,9,0,.,.,6.01,0.00,0.00
15min,AgWx,beryljct,423,15NOV2020:01:30:00,21.7,12.76,21.8,20.5,20.1,21.0,19.5,74,75,72,0.281,13.0,13.6,12.6,3.091,1.3,208,10,3.1,-0.00011,-0.00014,37.4,42.8,8,0,.,.,6.01,0.00,0.00
15min,AgWx,beryljct,423,15NOV2020:01:45:00,21.6,12.75,24.1,23.2,21.8,23.2,20.4,71,74,67,0.286,13.8,14.6,12.7,1.951,2.4,240,7.6,3.3,-0.00006,-0.00006,37.2,42.7,8,0,.,.,6.01,0.00,0.00
15min,AgWx,beryljct,423,15NOV2020:02:00:00,21.6,12.74,24.6,23.4,22.6,23.4,22.0,68,70,66,0.286,13.7,14.2,13.0,1.578,0.7,271,19,2.2,-0.00015,-0.00021,37.0,42.7,8,0,.,.,6.01,0.00,0.00
15min,AgWx,beryljct,423,15NOV2020:02:15:00,21.5,12.74,19.7,18.4,20.7,23.7,17.9,69,75,65,0.261,12.2,14.0,11.2,1.798,2.0,321,13,3.4,-0.00007,-0.00008,36.8,42.6,9,0,.,.,6.01,0.00,0.00
15min,AgWx,beryljct,423,15NOV2020:02:30:00,21.2,12.73,22.0,22.3,19.8,22.8,18.1,71,75,66,0.270,11.9,13.6,10.5,1.118,1.3,306,39,2.1,-0.00010,-0.00013,36.7,42.6,8,0,.,.,6.01,0.00,0.00
15min,AgWx,beryljct,423,15NOV2020:02:45:00,21.1,12.73,17.5,18.3,20.5,22.1,18.3,71,75,66,0.251,12.7,13.4,11.0,0.548,2.8,170,19,3.9,-0.00004,-0.00005,36.5,42.5,8,0,.,.,6.02,0.00,0.00
15min,AgWx,beryljct,423,15NOV2020:03:00:00,20.7,12.7,14.3,14.8,16.9,18.2,14.8,80,83,73,0.245,11.7,12.7,10.4,2.258,3.4,74,23,5.2,-0.00004,-0.00004,36.3,42.4,8,0,.,.,6.02,0.00,0.00
15min,AgWx,beryljct,423,15NOV2020:03:15:00,20.0,12.69,15.5,15.0,14.9,15.4,14.2,83,84,82,0.244,10.7,11.4,9.9,3.88,3.1,339,31,4.4,-0.00005,-0.00006,36.2,42.3,8,0,.,.,6.02,0.00,0.00
15min,AgWx,beryljct,423,15NOV2020:03:30:00,19.3,12.69,19.5,17.6,15.6,17.6,14.8,80,82,78,0.262,10.5,11.9,9.9,3.793,3.5,308,9.6,4.5,-0.00004,-0.00004,36.0,42.2,8,0,.,.,6.02,0.00,0.00
15min,AgWx,beryljct,423,15NOV2020:03:45:00,19.1,12.7,19.5,19.2,18.7,19.2,17.8,74,78,73,0.266,11.9,12.4,11.4,4.077,4.4,295,7.1,5.9,-0.00001,-0.00001,35.9,42.2,8,0,.,.,6.02,0.00,0.00
15min,AgWx,beryljct,423,15NOV2020:04:00:00,19.1,12.68,17.8,18.0,18.6,19.1,18.0,74,75,74,0.253,11.9,12.3,11.2,3.508,3.8,306,5.2,5.1,-0.00003,-0.00002,35.7,42.1,8,0,.,.,6.02,0.00,0.00
15min,AgWx,beryljct,423,15NOV2020:04:15:00,19.1,12.68,16.6,16.3,17.4,17.9,16.1,76,78,74,0.245,11.0,11.5,10.1,3.486,2.0,351,43,4.6,-0.00007,-0.00008,35.6,42.0,8,0,.,.,6.02,0.00,0.00
15min,AgWx,beryljct,423,15NOV2020:04:30:00,18.7,12.67,15.5,15.9,15.9,16.8,15.1,80,82,77,0.252,10.7,11.5,9.7,3.749,2.7,132,43,4.5,-0.00006,-0.00006,35.4,42.0,8,0,.,.,6.02,0.00,0.00
15min,AgWx,beryljct,423,15NOV2020:04:45:00,18.3,12.66,16.8,16.2,15.5,16.2,15.0,82,84,81,0.255,11.0,11.5,10.7,5.261,4.4,193,8.4,6.0,-0.00003,-0.00003,35.3,41.9,9,0,.,.,6.02,0.00,0.00
15min,AgWx,beryljct,423,15NOV2020:05:00:00,18.2,12.66,17.5,17.2,17.0,17.9,16.2,79,81,77,0.265,11.8,12.2,11.2,3.99,4.7,158,56,6.6,-0.00002,-0.00002,35.1,41.8,8,0,.,.,6.02,0.00,0.00
15min,AgWx,beryljct,423,15NOV2020:05:15:00,18.3,12.65,16.1,15.9,16.5,17.2,15.9,81,83,80,0.259,11.8,12.1,11.6,0,2.5,106,5.7,4.5,-0.00006,-0.00007,35.0,41.7,8,0,.,.,6.02,0.00,0.00
15min,AgWx,beryljct,423,15NOV2020:05:30:00,18.1,12.64,17.3,16.7,16.1,16.7,15.6,83,84,82,0.265,11.9,12.3,11.3,1.841,2.1,66,23,6.1,-0.00008,-0.00009,34.8,41.7,8,0,.,.,6.02,0.00,0.00
15min,AgWx,beryljct,423,15NOV2020:05:45:00,17.9,12.63,17.9,17.0,16.7,17.1,16.3,81,82,80,0.264,12.0,12.5,11.5,3.244,1.6,210,31,3.2,-0.00009,-0.00011,34.7,41.6,8,0,.,.,6.02,0.00,0.00
15min,AgWx,beryljct,423,15NOV2020:06:00:00,17.9,12.62,18.5,17.2,18.0,19.0,17.0,79,81,73,0.244,12.5,12.9,10.2,1.337,2.3,217,33,3.9,-0.00007,-0.00008,34.5,41.5,8,0,.,.,6.02,0.00,0.00
15min,AgWx,beryljct,423,15NOV2020:06:15:00,17.7,12.61,13.2,12.9,14.7,18.2,12.9,79,81,75,0.220,9.3,12.5,8.0,1.469,2.0,55,39,5.0,-0.00007,-0.00008,34.4,41.4,8,0,.,.,6.02,0.00,0.00
15min,AgWx,beryljct,423,15NOV2020:06:30:00,17.1,12.61,13.8,13.4,13.3,13.7,12.7,83,85,80,0.223,9.1,9.9,8.1,1.425,2.4,306,44,4.0,-0.00006,-0.00007,34.3,41.4,8,0,.,.,6.02,0.00,0.00
15min,AgWx,beryljct,423,15NOV2020:06:45:00,16.6,12.6,14.8,13.4,12.9,13.4,12.4,80,82,80,0.228,8.0,8.9,7.5,3.376,1.4,332,24,3.5,0.00003,0.00005,34.2,41.3,8,0,.,.,6.02,0.00,0.00
15min,AgWx,beryljct,423,15NOV2020:07:00:00,16.1,12.59,15.9,15.4,14.7,15.4,13.4,80,82,78,0.242,9.6,10.4,8.8,1.885,1.6,309,40,3.8,0.00004,0.00006,34.0,41.2,8,0,.,.,6.02,0.00,0.00
15min,AgWx,beryljct,423,15NOV2020:07:15:00,16.2,12.59,19.4,18.5,17.1,18.5,15.4,78,80,77,0.269,11.5,12.6,10.2,2.17,2.7,272,29,5.0,0.00007,0.00012,33.9,41.1,8,3,.,.,6.02,0.00,0.00
15min,AgWx,beryljct,423,15NOV2020:07:30:00,16.6,12.76,18.6,17.5,17.5,18.7,16.7,76,78,75,0.257,11.3,13.0,10.4,3.968,3.7,317,10,4.7,0.00013,0.00020,33.7,41.1,8,17,.,.,6.02,0.00,0.00
15min,AgWx,beryljct,423,15NOV2020:07:45:00,17.3,13.17,17.2,16.9,17.7,20.2,16.9,76,78,71,0.254,11.5,13.4,10.1,2.192,3.3,323,20,5.2,0.00022,0.00029,33.6,41.0,8,59,.,.,6.02,0.00,0.00
15min,AgWx,beryljct,423,15NOV2020:08:00:00,18.8,13.99,20.8,20.6,18.3,20.7,16.9,77,78,70,0.267,12.1,13.9,11.1,3.639,3.2,8.2,37,5.8,0.00028,0.00035,33.5,40.9,8,96,.,.,6.02,0.00,0.00
15min,AgWx,beryljct,423,15NOV2020:08:15:00,21.0,14.94,22.4,22.0,20.8,22.0,19.9,72,75,69,0.293,13.2,14.5,11.8,0,2.4,353,21,4.5,0.00039,0.00047,33.4,40.9,8,134,.,.,6.02,0.00,0.00
15min,AgWx,beryljct,423,15NOV2020:08:30:00,23.8,14.86,22.8,22.7,22.9,24.4,21.9,71,74,68,0.306,15.0,16.4,14.3,3.069,1.6,82,66,5.7,0.00051,0.00058,33.3,40.8,9,173,.,.,6.02,0.00,0.00
15min,AgWx,beryljct,423,15NOV2020:08:45:00,26.3,14.83,25.0,24.5,23.8,24.6,22.7,72,74,69,0.319,16.1,17.0,15.1,4.187,3.3,152,15,5.2,0.00064,0.00076,33.2,40.7,8,219,.,.,6.01,0.00,0.00
15min,AgWx,beryljct,423,15NOV2020:09:00:00,28.4,14.78,26.7,26.3,25.3,26.3,24.4,70,71,68,0.334,16.8,18.1,16.0,3.705,3.7,141,9.0,5.2,0.00079,0.00094,33.1,40.6,8,262,.,.,6.02,0.00,0.00
15min,AgWx,beryljct,423,15NOV2020:09:15:00,30.5,14.83,29.8,29.5,28.1,29.7,26.4,67,69,63,0.349,18.6,19.7,17.5,2.433,3.3,137,12,4.3,0.00097,0.00114,33.1,40.6,8,297,.,.,6.02,0.00,0.00
15min,AgWx,beryljct,423,15NOV2020:09:30:00,33.0,14.79,33.8,32.7,31.1,32.7,29.5,57,63,52,0.330,17.8,19.1,16.4,2.455,2.1,132,20,3.1,0.00119,0.00137,33.1,40.5,8,336,.,.,6.02,0.00,0.00
15min,AgWx,beryljct,423,15NOV2020:09:45:00,36.1,14.65,37.5,36.6,34.8,36.9,32.7,48,52,44,0.338,17.3,18.1,16.2,1.074,2.0,161,15,3.6,0.00145,0.00167,33.1,40.4,8,374,.,.,6.01,0.00,0.00
15min,AgWx,beryljct,423,15NOV2020:10:00:00,39.2,14.71,40.4,39.3,37.7,39.3,36.7,45,47,43,0.349,18.3,19.5,17.6,1.688,2.7,118,15,3.9,0.00171,0.00200,33.2,40.3,9,411,.,.,6.01,0.00,0.00
15min,AgWx,beryljct,423,15NOV2020:10:15:00,41.9,14.16,41.4,40.6,39.7,40.6,39.2,41,43,37,0.317,17.6,19.0,16.2,1.973,2.8,111,13,4.2,0.00192,0.00226,33.3,40.2,8,443,.,.,6.01,0.00,0.00
15min,AgWx,beryljct,423,15NOV2020:10:30:00,44.3,14.15,42.5,42.7,42.2,43.3,40.7,36,39,34,0.330,17.4,18.8,16.3,2.959,2.4,106,17,4.0,0.00212,0.00247,33.4,40.2,8,471,.,.,6.00,0.00,0.00
15min,AgWx,beryljct,423,15NOV2020:10:45:00,46.6,14.12,46.3,45.6,43.9,45.6,42.7,36,38,35,0.378,18.8,20.4,17.0,2.718,2.0,130,25,4.0,0.00228,0.00262,33.6,40.1,8,497,.,.,6.00,0.00,0.00
15min,AgWx,beryljct,423,15NOV2020:11:00:00,48.9,14.13,45.9,46.6,45.8,46.6,44.7,35,36,34,0.379,20.0,21.1,18.9,2.85,2.2,129,21,3.7,0.00247,0.00285,33.9,40.1,8,523,.,.,6.00,0.00,0.00
15min,AgWx,beryljct,423,15NOV2020:11:15:00,50.8,13.99,49.4,48.7,47.8,49.0,46.4,35,36,33,0.386,21.2,22.4,19.9,3.113,2.5,102,18,4.6,0.00256,0.00299,34.3,40.0,8,519,.,.,6.00,0.00,0.00
15min,AgWx,beryljct,423,15NOV2020:11:30:00,52.4,14,50.6,50.4,50.0,50.9,48.8,33,34,32,0.400,22.1,23.4,21.0,1.863,3.2,82,46,5.5,0.00283,0.00336,34.7,39.9,8,553,.,.,5.99,0.00,0.00
15min,AgWx,beryljct,423,15NOV2020:11:45:00,54.1,13.97,53.1,53.5,52.0,53.9,50.4,30,32,27,0.380,21.9,23.3,20.5,1.206,1.7,56,27,3.8,0.00288,0.00328,35.2,39.9,8,569,.,.,5.99,0.00,0.00
15min,AgWx,beryljct,423,15NOV2020:12:00:00,56.0,13.96,54.0,54.4,53.4,54.4,53.0,28,28,27,0.402,20.8,21.9,19.9,3.99,2.0,329,42,4.0,0.00299,0.00344,35.8,39.9,8,574,.,.,5.99,0.00,0.00
15min,AgWx,beryljct,423,15NOV2020:12:15:00,57.6,14.01,56.3,55.5,54.9,55.6,54.1,27,28,26,0.403,21.3,22.8,20.7,4.56,2.3,357,46,4.6,0.00310,0.00361,36.3,39.8,8,577,.,.,5.98,0.00,0.00
15min,AgWx,beryljct,423,15NOV2020:12:30:00,58.9,13.86,57.6,56.9,56.1,57.0,55.3,25,27,24,0.391,21.2,22.4,19.7,3.683,3.4,339,18,6.1,0.00325,0.00391,36.9,39.8,8,578,.,.,5.98,0.00,0.00
15min,AgWx,beryljct,423,15NOV2020:12:45:00,60.1,13.85,58.6,58.6,58.0,59.3,57.0,23,25,21,0.356,20.5,21.7,19.0,0.986,2.5,29,25,5.5,0.00323,0.00380,37.5,39.8,8,573,.,.,5.97,0.00,0.00
15min,AgWx,beryljct,423,15NOV2020:13:00:00,61.6,13.8,60.0,60.0,59.4,60.5,58.5,22,23,21,0.375,20.1,21.9,18.8,1.359,2.3,335,38,6.2,0.00322,0.00378,38.2,39.8,8,568,.,.,5.97,0.00,0.00
15min,AgWx,beryljct,423,15NOV2020:13:15:00,62.8,13.79,61.2,60.5,59.9,60.9,59.0,21,23,20,0.367,20.2,22.9,18.9,0.548,2.4,1.3,59,5.4,0.00319,0.00376,38.9,39.8,8,557,.,.,5.97,0.00,0.00
15min,AgWx,beryljct,423,15NOV2020:13:30:00,63.9,13.86,61.0,61.5,61.3,62.0,60.3,20,21,18,0.356,19.3,21.7,18.4,2.696,2.5,174,64,5.0,0.00317,0.00378,39.5,39.8,8,544,.,.,5.97,0.00,0.00
15min,AgWx,beryljct,423,15NOV2020:13:45:00,64.9,13.72,62.5,61.6,62.0,63.0,61.0,19,21,18,0.343,19.8,21.8,18.2,5.985,3.5,106,64,7.7,0.00321,0.00396,40.1,39.9,8,526,.,.,5.97,0.00,0.00
15min,AgWx,beryljct,423,15NOV2020:14:00:00,65.4,13.73,63.3,63.0,62.8,63.6,61.7,19,20,18,0.369,19.8,21.2,18.0,9.25,5.7,219,65,11.6,0.00334,0.00440,40.8,39.9,8,492,.,.,5.97,0.00,0.00
15min,AgWx,beryljct,423,15NOV2020:14:15:00,65.6,13.75,62.1,62.2,62.6,63.6,61.8,19,20,19,0.365,20.1,21.4,19.0,6.182,9.4,183,23,15.9,0.00369,0.00519,41.4,39.9,8,477,.,.,5.96,0.00,0.00
15min,AgWx,beryljct,423,15NOV2020:14:30:00,65.5,13.73,62.8,63.0,62.3,63.0,61.5,19,20,19,0.400,20.1,21.8,18.9,6.27,8.9,178,18,14.0,0.00346,0.00488,42.0,40.1,8,448,.,.,5.96,0.00,0.00
15min,AgWx,beryljct,423,15NOV2020:14:45:00,65.4,13.72,61.4,61.6,62.1,63.0,61.5,20,21,19,0.386,20.2,21.4,19.2,6.774,10.0,171,16,16.7,0.00341,0.00493,42.6,40.1,8,422,.,.,5.97,0.00,0.00
15min,AgWx,beryljct,423,15NOV2020:15:00:00,65.0,13.73,62.5,62.0,61.7,62.0,61.4,21,22,20,0.407,20.8,22.3,19.8,10.5,11.7,153,11,17.5,0.00340,0.00506,43.1,40.2,8,391,.,.,5.97,0.00,0.00
15min,AgWx,beryljct,423,15NOV2020:15:15:00,64.6,13.77,61.6,61.5,61.6,62.1,61.3,20,21,20,0.379,20.7,21.9,19.7,8.75,12.3,156,9.3,17.0,0.00329,0.00498,43.5,40.3,8,356,.,.,5.97,0.00,0.00
15min,AgWx,beryljct,423,15NOV2020:15:30:00,64.3,13.75,61.3,62.0,62.0,62.9,61.4,20,21,19,0.376,20.7,21.6,19.9,13.07,10.3,171,17,20.8,0.00289,0.00440,43.9,40.4,8,317,.,.,5.97,0.00,0.00
15min,AgWx,beryljct,423,15NOV2020:15:45:00,64.0,13.76,60.5,60.5,60.9,61.9,60.5,21,22,20,0.378,20.8,21.6,19.9,13.31,13.2,166,11,17.1,0.00295,0.00468,44.3,40.6,8,278,.,.,5.97,0.00,0.00
15min,AgWx,beryljct,423,15NOV2020:16:00:00,63.4,13.75,60.5,60.3,60.4,60.5,60.2,21,22,21,0.371,20.3,21.0,19.7,11.4,13.2,167,9.1,16.8,0.00274,0.00444,44.6,40.7,8,237,.,.,5.97,0.00,0.00
15min,AgWx,beryljct,423,15NOV2020:16:15:00,62.8,13.8,59.6,59.6,60.0,60.5,59.6,21,21,20,0.371,19.9,20.5,19.5,12.32,12.1,180,8.6,14.6,0.00238,0.00395,44.9,40.8,8,192,.,.,5.97,0.00,0.00
15min,AgWx,beryljct,423,15NOV2020:16:30:00,62.0,13.83,58.6,58.7,59.3,59.7,58.7,22,22,21,0.372,19.9,20.4,19.6,10.65,12.0,187,7.3,14.8,0.00113,0.00136,45.0,41.0,8,154,.,.,5.97,0.00,0.00
15min,AgWx,beryljct,423,15NOV2020:16:45:00,61.1,13.82,57.9,57.6,58.2,58.8,57.5,23,23,22,0.372,20.1,20.4,19.6,8.55,9.9,188,6.4,13.0,0.00095,0.00117,45.2,41.1,8,114,.,.,5.97,0.00,0.00
15min,AgWx,beryljct,423,15NOV2020:17:00:00,59.7,13.87,55.9,55.9,56.7,57.6,55.9,24,25,23,0.369,20.1,20.4,19.8,6.511,7.6,184,5.8,10.5,0.00074,0.00095,45.3,41.3,8,78,.,.,5.97,0.00,0.00
15min,AgWx,beryljct,423,15NOV2020:17:15:00,57.7,13.13,52.4,52.1,53.9,55.9,52.1,26,28,24,0.367,19.9,20.2,19.6,5.502,6.0,186,8.4,7.3,0.00046,0.00063,45.3,41.4,8,19,.,.,5.97,0.00,0.00
15min,AgWx,beryljct,423,15NOV2020:17:30:00,54.9,13.07,49.8,50.9,51.7,52.4,50.8,28,29,27,0.367,19.7,19.9,19.4,5.568,6.0,202,3.2,7.7,0.00040,0.00054,45.3,41.6,9,6,.,.,5.98,0.00,0.00
15min,AgWx,beryljct,423,15NOV2020:17:45:00,52.4,13.04,50.5,50.2,50.3,50.9,49.6,29,30,28,0.360,19.4,19.9,19.0,5.612,5.7,204,3.6,6.6,0.00035,0.00048,45.3,41.7,8,1,.,.,5.98,0.00,0.00
15min,AgWx,beryljct,423,15NOV2020:18:00:00,50.3,13.01,43.4,45.0,48.5,50.7,44.0,31,38,28,0.376,19.4,20.5,18.6,5.02,5.0,176,22,6.8,0.00027,0.00038,45.2,41.9,9,0,.,.,5.98,0.00,0.00
15min,AgWx,beryljct,423,15NOV2020:18:15:00,48.1,13,44.1,43.9,44.5,46.6,43.1,38,41,34,0.380,20.5,21.0,19.8,6.423,6.3,156,3.8,7.3,0.00028,0.00037,45.1,42.0,8,0,.,.,5.98,0.00,0.00
15min,AgWx,beryljct,423,15NOV2020:18:30:00,46.1,13,39.9,39.3,42.0,45.8,39.0,41,47,35,0.373,19.9,20.6,19.1,3.727,5.3,188,13,6.7,0.00020,0.00028,44.9,42.1,8,0,.,.,5.98,0.00,0.00
15min,AgWx,beryljct,423,15NOV2020:18:45:00,44.1,12.99,45.2,44.9,41.7,45.6,38.4,40,46,35,0.369,19.1,20.1,18.5,3.354,3.6,214,11,4.8,0.00010,0.00016,44.7,42.2,8,0,.,.,5.99,0.00,0.00
15min,AgWx,beryljct,423,15NOV2020:19:00:00,43.0,12.98,45.6,43.3,42.6,44.9,41.2,40,43,37,0.376,20.2,20.5,19.4,0,0.9,176,55,3.2,-0.00017,-0.00023,44.5,42.4,9,0,.,.,5.99,0.00,0.00
15min,AgWx,beryljct,423,15NOV2020:19:15:00,42.2,12.96,44.8,44.0,43.1,44.6,40.6,39,43,37,0.358,19.6,20.4,18.8,2.302,2.3,92,35,4.8,-0.00002,0.00001,44.3,42.5,9,0,.,.,5.99,0.00,0.00
15min,AgWx,beryljct,423,15NOV2020:19:30:00,41.3,12.96,39.5,39.6,40.2,44.2,37.8,42,46,36,0.364,19.1,19.6,18.5,1.995,1.6,325,53,4.1,-0.00009,-0.00011,44.0,42.6,8,0,.,.,5.99,0.00,0.00
15min,AgWx,beryljct,423,15NOV2020:19:45:00,40.1,12.94,39.7,39.2,36.5,40.3,33.5,51,59,43,0.379,19.9,21.5,18.5,3.968,5.2,97,48,8.6,0.00012,0.00017,43.8,42.7,8,0,.,.,5.99,0.00,0.00
15min,AgWx,beryljct,423,15NOV2020:20:00:00,39.2,12.92,38.7,37.5,37.5,39.3,36.5,50,52,46,0.368,20.4,20.7,19.8,2.631,2.3,168,39,4.1,-0.00004,-0.00002,43.5,42.8,9,0,.,.,5.99,0.00,0.00
15min,AgWx,beryljct,423,15NOV2020:20:15:00,38.6,12.93,35.3,36.0,37.6,39.0,34.3,48,55,45,0.369,19.5,20.2,18.8,2.85,3.0,179,39,4.0,0.00002,0.00005,43.2,42.8,8,0,.,.,5.99,0.00,0.00
15min,AgWx,beryljct,423,15NOV2020:20:30:00,37.8,12.92,33.8,33.2,35.4,37.2,33.2,52,58,48,0.370,19.6,20.2,19.2,3.223,3.1,122,27,5.1,0.00001,0.00003,43.0,42.9,8,0,.,.,5.99,0.00,0.00
15min,AgWx,beryljct,423,15NOV2020:20:45:00,36.5,12.91,29.5,29.3,30.7,33.7,28.7,66,73,57,0.385,20.5,21.4,19.6,2.499,3.4,120,22,6.0,-0.00002,-0.00001,42.7,42.9,9,0,.,.,6.00,0.00,0.00
15min,AgWx,beryljct,423,15NOV2020:21:00:00,35.3,12.9,32.7,31.9,30.9,31.9,29.2,63,70,60,0.362,20.0,20.9,19.3,0,1.5,190,6.7,3.1,-0.00011,-0.00013,42.5,43.0,8,0,.,.,6.00,0.00,0.00
15min,AgWx,beryljct,423,15NOV2020:21:15:00,34.2,12.89,28.5,28.1,30.2,32.7,27.5,63,70,58,0.363,19.0,19.6,18.1,1.513,1.4,304,42,4.8,-0.00012,-0.00015,42.2,43.1,8,0,.,.,5.99,0.00,0.00
15min,AgWx,beryljct,423,15NOV2020:21:30:00,33.4,12.88,30.0,30.8,30.3,31.7,28.1,64,70,60,0.367,19.5,20.9,18.8,1.556,1.3,24,13,2.2,-0.00013,-0.00016,42.0,43.1,8,0,.,.,6.00,0.00,0.00
15min,AgWx,beryljct,423,15NOV2020:21:45:00,32.5,12.87,29.9,29.4,28.3,30.7,26.7,68,71,63,0.356,19.0,19.6,18.1,0.022,0.2,358,21,1.7,-0.00021,-0.00031,41.7,43.1,8,0,.,.,6.00,0.00,0.00
15min,AgWx,beryljct,423,15NOV2020:22:00:00,31.8,12.87,30.9,30.9,30.5,31.3,29.4,62,65,60,0.350,18.9,19.2,18.6,0,0.0,324,0.0,0.4,-0.00025,-0.00039,41.5,43.1,8,0,.,.,6.00,0.00,0.00
15min,AgWx,beryljct,423,15NOV2020:22:15:00,31.3,12.85,30.4,29.2,30.4,31.2,28.9,61,65,60,0.348,18.7,19.0,18.1,3.464,0.6,298,41,3.5,-0.00018,-0.00026,41.2,43.1,8,0,.,.,6.00,0.00,0.00
15min,AgWx,beryljct,423,15NOV2020:22:30:00,31.0,12.85,26.3,27.8,29.6,31.6,26.6,62,67,58,0.336,18.2,19.3,17.0,3.902,3.6,199,8.8,5.3,-0.00000,0.00001,41.0,43.1,8,0,.,.,6.00,0.00,0.00
15min,AgWx,beryljct,423,15NOV2020:22:45:00,30.3,12.85,26.6,27.0,26.9,30.6,24.8,66,73,56,0.295,17.2,18.9,14.5,0,3.0,184,8.2,4.7,-0.00003,-0.00003,40.7,43.2,8,0,.,.,6.01,0.00,0.00
15min,AgWx,beryljct,423,15NOV2020:23:00:00,29.8,12.84,23.9,24.5,26.6,27.5,24.5,62,65,59,0.293,15.2,15.8,14.4,0,1.5,156,7.1,3.0,-0.00010,-0.00012,40.5,43.2,8,0,.,.,6.01,0.00,0.00
15min,AgWx,beryljct,423,15NOV2020:23:15:00,29.1,12.83,26.2,25.9,25.2,26.1,23.8,69,71,66,0.327,16.4,17.4,14.7,0,2.0,119,18,5.1,-0.00008,-0.00009,40.3,43.1,8,0,.,.,6.01,0.00,0.00
15min,AgWx,beryljct,423,15NOV2020:23:30:00,28.5,12.8,26.1,26.5,25.6,26.7,24.9,68,70,62,0.303,16.5,17.2,15.3,0.723,1.1,202,4.6,2.1,-0.00013,-0.00017,40.0,43.1,8,0,.,.,6.01,0.00,0.00
15min,AgWx,beryljct,423,15NOV2020:23:45:00,28.1,12.81,24.4,24.5,25.9,26.8,24.5,66,69,62,0.305,16.2,16.7,14.8,2.346,2.2,125,17,3.5,-0.00007,-0.00007,39.8,43.1,8,0,.,.,6.01,0.00,0.00
15min,AgWx,bigpiney,439,15NOV2020:00:00:00,3.7,12.56,4.9,2.4,2.7,6.3,-0.9,85,90,80,0.146,-0.7,3.6,-5.2,3.288,2.8,231,25,5.2,0.00001,0.00001,34.7,37.5,45,0,0,0.0,0.44,0.00,0.00
15min,AgWx,bigpiney,439,15NOV2020:00:15:00,3.1,12.55,8.7,7.9,4.7,7.9,-0.2,87,91,82,0.189,1.7,4.8,-4.2,2.148,2.8,271,18,4.7,0.00001,0.00001,34.7,37.5,45,0,0,0.0,0.44,0.00,0.00
15min,AgWx,bigpiney,439,15NOV2020:00:30:00,3.0,12.55,1.9,2.6,4.1,8.2,1.9,84,87,80,0.145,0.3,5.1,-2.1,3.727,3.8,232,19,5.6,0.00001,0.00002,34.7,37.5,45,0,0,0.0,0.44,0.00,0.00
15min,AgWx,bigpiney,439,15NOV2020:00:45:00,3.0,12.54,2.2,2.7,1.5,3.1,0.3,84,87,82,0.147,-2.2,-0.0,-3.9,2.28,3.9,228,13,6.2,0.00001,0.00002,34.7,37.5,45,0,0,0.0,0.44,0.00,0.00
15min,AgWx,bigpiney,439,15NOV2020:01:00:00,3.1,12.53,5.1,3.8,3.0,5.2,1.1,85,89,82,0.156,-0.5,2.6,-2.9,0,1.1,229,24,3.5,-0.00000,-0.00000,34.7,37.5,45,0,0,0.0,0.44,0.00,0.00
15min,AgWx,bigpiney,439,15NOV2020:01:15:00,3.1,12.52,-1.2,1.5,3.7,4.5,1.5,86,87,83,0.135,0.3,1.6,-2.4,1.403,1.7,351,70,4.0,-0.00000,0.00000,34.7,37.5,45,0,0,0.0,0.44,0.00,0.00
15min,AgWx,bigpiney,439,15NOV2020:01:30:00,3.3,12.51,4.9,2.2,1.9,3.1,0.3,84,86,82,0.141,-1.8,-0.4,-4.0,3.179,1.9,303,47,3.2,0.00000,0.00000,34.7,37.5,45,0,0,0.0,0.44,0.00,0.00
15min,AgWx,bigpiney,439,15NOV2020:01:45:00,3.8,12.49,8.1,6.8,4.2,6.8,2.5,85,87,83,0.180,0.7,3.6,-1.3,2.609,2.1,272,36,3.4,0.00000,0.00001,34.7,37.5,45,0,0,0.0,0.44,0.00,0.00
15min,AgWx,bigpiney,439,15NOV2020:02:00:00,4.8,12.5,8.7,8.2,7.7,8.4,6.9,85,87,83,0.187,4.0,4.8,3.2,1.71,0.8,244,29,2.4,-0.00001,-0.00001,34.7,37.5,45,0,0,0.0,0.44,0.00,0.00
15min,AgWx,bigpiney,439,15NOV2020:02:15:00,6.1,12.49,10.3,9.7,9.1,9.7,8.2,85,85,84,0.199,5.4,6.0,4.5,2.148,1.4,311,28,2.4,-0.00000,0.00000,34.7,37.5,45,0,0,0.0,0.44,0.00,0.00
15min,AgWx,bigpiney,439,15NOV2020:02:30:00,7.5,12.49,10.7,10.1,10.0,10.2,9.7,84,84,84,0.204,6.2,6.4,5.9,1.337,1.3,341,9.4,2.8,-0.00000,-0.00000,34.7,37.5,45,0,0,0.0,0.44,0.00,0.00
15min,AgWx,bigpiney,439,15NOV2020:02:45:00,8.6,12.48,11.4,10.7,10.5,10.8,10.2,85,85,84,0.211,6.8,7.2,6.4,1.008,1.0,340,5.9,1.7,-0.00001,-0.00001,34.7,37.4,45,0,0,0.0,0.44,0.00,0.00
15min,AgWx,bigpiney,439,15NOV2020:03:00:00,9.5,12.48,12.2,11.7,11.3,11.8,10.8,85,86,85,0.220,7.8,8.3,7.2,0,1.1,8.6,36,2.2,-0.00001,-0.00001,34.6,37.5,45,0,0,0.0,0.44,0.00,0.00
15min,AgWx,bigpiney,439,15NOV2020:03:15:00,10.4,12.46,12.9,12.4,12.1,12.4,11.7,85,86,85,0.229,8.5,8.9,8.1,1.206,1.0,291,9.7,2.5,-0.00001,-0.00001,34.6,37.5,45,0,0,0.0,0.44,0.00,0.00
15min,AgWx,bigpiney,439,15NOV2020:03:30:00,11.3,12.45,12.0,11.6,12.1,12.6,11.6,86,86,86,0.221,8.7,9.2,8.2,0,1.1,26,33,2.8,-0.00001,-0.00001,34.6,37.5,45,0,0,0.0,0.44,0.00,0.00
15min,AgWx,bigpiney,439,15NOV2020:03:45:00,12.0,12.46,12.1,11.8,11.7,11.8,11.6,86,86,86,0.224,8.4,8.6,8.2,1.14,0.0,4.7,8.2,1.1,-0.00003,-0.00004,34.6,37.5,45,0,0,0.0,0.44,0.00,0.00
15min,AgWx,bigpiney,439,15NOV2020:04:00:00,12.5,12.45,11.7,11.3,11.5,11.8,11.3,86,86,86,0.219,8.1,8.5,8.0,1.688,1.2,41,24,2.5,-0.00001,-0.00001,34.6,37.4,45,0,0,0.0,0.44,0.00,0.00
15min,AgWx,bigpiney,439,15NOV2020:04:15:00,12.7,12.46,11.6,11.1,11.1,11.3,10.9,87,87,86,0.218,7.9,8.0,7.7,0.68,2.0,47,77,4.0,0.00000,0.00000,34.6,37.4,45,0,0,0.0,0.44,0.00,0.00
15min,AgWx,bigpiney,439,15NOV2020:04:30:00,12.8,12.46,11.8,11.4,11.2,11.4,10.9,87,87,87,0.222,8.1,8.4,7.7,2.192,1.3,358,35,3.5,-0.00001,-0.00001,34.6,37.5,45,0,0,0.0,0.44,0.00,0.00
15min,AgWx,bigpiney,439,15NOV2020:04:45:00,12.8,12.46,12.3,11.7,11.4,11.7,11.3,87,88,87,0.227,8.3,8.8,8.2,0.351,0.7,291,62,2.7,-0.00001,-0.00002,34.6,37.4,45,0,0,0.0,0.44,0.00,0.00
15min,AgWx,bigpiney,439,15NOV2020:05:00:00,13.0,12.46,12.5,12.0,11.9,12.1,11.7,87,88,87,0.229,8.9,9.1,8.8,0.723,0.2,39,6.0,1.3,-0.00002,-0.00003,34.6,37.5,45,0,0,0.0,0.44,0.00,0.00
15min,AgWx,bigpiney,439,15NOV2020:05:15:00,13.3,12.45,12.9,12.3,12.1,12.4,12.0,88,88,87,0.233,9.1,9.4,8.9,0.855,0.6,11,17,1.7,-0.00002,-0.00002,34.6,37.4,45,0,0,0.0,0.44,0.00,0.00
15min,AgWx,bigpiney,439,15NOV2020:05:30:00,13.5,12.45,13.3,12.8,12.5,12.8,12.4,88,88,88,0.239,9.6,10.0,9.4,2.828,1.4,4.5,26,3.2,-0.00001,-0.00001,34.6,37.5,45,0,0,0.0,0.44,0.00,0.00
15min,AgWx,bigpiney,439,15NOV2020:05:45:00,13.8,12.45,13.4,12.9,12.8,13.0,12.7,88,88,87,0.240,9.8,10.0,9.7,1.885,2.2,22,21,4.1,0.00000,0.00000,34.6,37.4,45,0,0,0.0,0.44,0.00,0.00
15min,AgWx,bigpiney,439,15NOV2020:06:00:00,14.1,12.45,13.8,13.2,13.1,13.4,12.9,88,88,88,0.243,10.2,10.5,10.0,1.425,2.2,0.9,22,3.3,0.00000,0.00000,34.6,37.4,45,0,0,0.0,0.44,0.00,0.00
15min,AgWx,bigpiney,439,15NOV2020:06:15:00,14.4,12.45,14.2,13.6,13.4,13.6,13.2,88,88,88,0.248,10.6,10.8,10.3,0.614,1.9,348,15,2.9,-0.00000,0.00000,34.6,37.4,45,0,0,0.0,0.44,0.00,0.00
15min,AgWx,bigpiney,439,15NOV2020:06:30:00,14.7,12.45,14.5,14.0,13.8,14.0,13.6,88,89,88,0.253,11.0,11.2,10.8,0,1.1,340,24,2.0,-0.00001,-0.00001,34.6,37.4,45,0,0,0.0,0.44,0.00,0.00
15min,AgWx,bigpiney,439,15NOV2020:06:45:00,14.9,12.45,14.7,14.3,14.2,14.3,14.0,89,89,88,0.257,11.4,11.5,11.2,1.82,1.4,337,23,2.9,-0.00001,-0.00001,34.6,37.5,45,0,0,0.0,0.44,0.00,0.00
15min,AgWx,bigpiney,439,15NOV2020:07:00:00,15.3,12.44,15.2,14.7,14.5,14.8,14.3,89,89,89,0.263,11.8,12.1,11.5,1.82,1.7,325,13,2.6,-0.00000,-0.00000,34.6,37.4,45,0,0,0.0,0.44,0.00,0.00
15min,AgWx,bigpiney,439,15NOV2020:07:15:00,15.6,12.44,15.5,14.9,14.9,15.0,14.7,89,89,89,0.264,12.2,12.3,12.0,1.907,2.6,329,14,3.7,0.00001,0.00001,34.6,37.4,45,2,0,0.0,0.44,0.00,0.00
15min,AgWx,bigpiney,439,15NOV2020:07:30:00,15.8,12.46,15.6,15.2,15.0,15.2,14.9,89,89,89,0.267,12.3,12.5,12.2,1.82,2.3,348,8.8,3.2,-0.00008,-0.00006,34.6,37.4,45,7,0,0.0,0.44,0.00,0.00
15min,AgWx,bigpiney,439,15NOV2020:07:45:00,16.1,12.49,15.6,15.2,15.2,15.2,15.1,88,89,88,0.266,12.3,12.4,12.1,3.288,2.4,7.6,6.1,3.3,-0.00012,-0.00010,34.6,37.4,45,22,0,0.0,0.44,0.00,0.00
15min,AgWx,bigpiney,439,15NOV2020:08:00:00,16.4,12.56,16.0,15.5,15.3,15.6,15.1,88,89,88,0.270,12.5,12.8,12.2,1.14,2.4,3.4,9.1,3.6,-0.00006,-0.00004,34.6,37.4,45,48,0,0.0,0.44,0.00,0.00
15min,AgWx,bigpiney,439,15NOV2020:08:15:00,16.8,12.61,16.6,16.1,15.8,16.1,15.5,89,89,88,0.278,13.0,13.3,12.7,2.653,2.3,355,7.8,3.0,0.00005,0.00007,34.6,37.4,45,62,0,0.0,0.44,0.00,0.00
15min,AgWx,bigpiney,439,15NOV2020:08:30:00,17.4,12.72,16.9,16.3,16.2,16.3,16.0,89,89,88,0.280,13.4,13.6,13.2,2.236,3.2,1.2,14,4.3,0.00013,0.00016,34.6,37.4,45,91,0,0.0,0.44,0.00,0.00